Content
SEND FEEDBACK

Daily
Averages
Monthly
Summary
United States of America

NEW YORK - CENTRAL PARK, NEW YORK


Home > North America > United States > New York
Elevation: 14 feet     Latitude: 40 47N     Longitude: 073 58W

WEATHER
 
SELECT A DAY
Number of Records: 153,021;   Date Range: 11/1/95 - 12/20/14
 
SHARE

PRINT THIS DATA

[ ← Previous Day ]
WEATHER ALMANAC - MAY 20, 2013
[ Next Day → ]
[ °C ]   °F
Weather ElementAverageHighLow
Temperature66 °F77 °F (3:51 pm)57.9 °F (12:51 am)
Dewpoint60.5 °F64.9 °F (3:51 pm)57 °F (12:51 am)
Humidity83.9 %97 % (12:51 am)64 % (2:05 pm)
Barometer30.08 in30.16 in (12:51 am)29.97 in (5:51 pm)
Wind Speed1.2 mph4.6 mph (9:29 am)
Weather ElementAverage
Visibility4.5 mi
Wind DirectionNNE (5.9 °)

Weather ElementTotal
Precipitation---
Cooling Degree Days2.5 (Base 65)
Growing Degree Days17.5 (Base 50)
Averaged from 39 records on May 20, 2013
WEATHER CONDITIONS BREAKOUT
WIND DIRECTION BREAKOUT
WEATHER BY HOUR - MAY 20, 2013
[ °C ]   °F
Local TimeTemperatureDewpointHumidityBarometerVisibilityWind DirectionWind SpeedGust SpeedPrecipitationEventsConditions
12:51 AM57.9 °F57.0 °F97 %30.16 in0.8 miCalmMist
1:41 AM57.9 °F57.0 °F97 %30.16 in1.2 miCalmMist
1:51 AM57.9 °F57.0 °F97 %30.13 in0.8 miCalmMist
1:56 AM57.9 °F57.0 °F97 %30.16 in1.0 miCalmOvercast
2:08 AM57.9 °F57.0 °F97 %30.15 in0.8 miCalmOvercast
2:51 AM59.0 °F57.0 °F93 %30.11 in0.5 miCalmFogFog
3:32 AM59.0 °F57.0 °F93 %30.13 in1.2 miCalmOvercast
3:51 AM59.0 °F57.0 °F93 %30.11 in0.8 miCalmOvercast
4:51 AM59.0 °F57.0 °F93 %30.10 in0.8 miCalmOvercast
5:02 AM59.0 °F57.0 °F93 %30.12 in1.0 miCalmOvercast
5:16 AM59.0 °F57.9 °F96 %30.12 in0.8 miCalmOvercast
5:21 AM59.0 °F57.9 °F96 %30.12 in1.0 miCalmOvercast
5:33 AM59.0 °F57.9 °F96 %30.11 in0.8 miCalmOvercast
5:51 AM59.0 °F57.9 °F96 %30.09 in0.5 miCalmFogFog
6:51 AM59.0 °F57.9 °F96 %30.09 in0.2 miCalmFogFog
7:51 AM60.1 °F59.0 °F96 %30.11 in0.5 miCalmFogFog
8:41 AM62.1 °F60.1 °F93 %30.14 in1.2 miCalmOvercast
8:51 AM62.1 °F60.1 °F93 %30.12 in1.5 miCalmOvercast
8:59 AM62.1 °F60.1 °F93 %30.14 in1.5 miCalmOvercast
9:09 AM63.0 °F60.1 °F90 %30.14 in2.0 miCalmOvercast
9:29 AM63.0 °F61.0 °F93 %30.13 in3.0 miVariable4.6 mphOvercast
9:51 AM64.9 °F62.1 °F90 %30.10 in3.0 miVariable3.5 mphOvercast
10:17 AM66.0 °F61.0 °F84 %30.13 in3.0 miCalmHaze
10:51 AM68.0 °F63.0 °F84 %30.10 in4.0 miVariable4.6 mphHaze
11:51 AM73.0 °F64.0 °F73 %30.07 in8.0 miVariable3.5 mphScattered Clouds
12:51 PM75.9 °F64.0 °F67 %30.04 in9.0 miCalmPartly Cloudy
1:35 PM73.9 °F63.0 °F68 %30.05 in9.0 miVariable3.5 mphMostly Cloudy
1:51 PM73.9 °F64.0 °F71 %30.02 in10.0 miCalmOvercast
2:05 PM75.9 °F63.0 °F64 %30.05 in9.0 miCalmMostly Cloudy
2:51 PM75.9 °F64.0 °F67 %30.01 in10.0 miNorthScattered Clouds
3:51 PM77.0 °F64.9 °F66 %30.01 in10.0 miVariable4.6 mphScattered Clouds
4:51 PM77.0 °F64.4 °F65 %30.00 in10.0 miNorthPartly Cloudy
5:51 PM77.0 °F64.0 °F64 %29.97 in10.0 miVariable3.5 mphMostly Cloudy
6:51 PM75.9 °F64.0 °F67 %29.97 in10.0 miVariable4.6 mphPartly Cloudy
7:51 PM75.0 °F63.0 °F66 %29.97 in10.0 miVariable3.5 mphClear
8:51 PM75.0 °F63.0 °F66 %29.97 in10.0 miVariable3.5 mphClear
9:51 PM73.0 °F63.0 °F71 %29.99 in10.0 miCalmClear
10:51 PM72.0 °F64.0 °F76 %29.98 in9.0 miSW (230°)3.5 mphClear
11:51 PM71.1 °F63.0 °F75 %29.97 in8.0 miCalmClear
Hourly data recorded from KNYC, located miles away from New York - Central Park, New York







STORIES FROM OUR PARTNERS